Regional Weather Roundup
Issued by NWS

Home | Current Version | Previous Version | Text Only | Print | Product List | Glossary On
Versions: 1 2 3 4 5 6 7 8 9 10 11 12 13 14 15 16 17 18 19 20 21 22 23 24 25 26 27 28 29 30 31 32 33 34 35 36 37 38 39 40 41 42 43 44 45 46 47 48 49 50
000
ASUS43 KTOP 311259
RWRKS

WEATHER ROUNDUP FOR KANSAS
NATIONAL WEATHER SERVICE GOODLAND KS
800 AM CDT TUE MAY 31 2016

NOTE:  "FAIR" INDICATES FEW OR NO CLOUDS BELOW 12,000 FEET WITH NO
SIGNIFICANT WEATHER AND/OR OBSTRUCTIONS TO VISIBILITY.

KSZ001>006-013>018-027>032-041>047-311400-
NORTHWEST KANSAS

CITY           SKY/WX    TMP DP  RH WIND       PRES   REMARKS
GOODLAND       CLOUDY    53  51  93 N8        30.10R
HAYS           CLOUDY    59  52  77 NW9       29.99R
HILL CITY      PTSUNNY   59  56  89 N9        30.02R
RUSSELL        CLOUDY    60  58  92 NW12      29.95S
$$

KSZ061>065-074>080-084>089-311400-
SOUTHWEST KANSAS

CITY           SKY/WX    TMP DP  RH WIND       PRES   REMARKS
DODGE CITY     CLOUDY    58  56  93 S6        29.98F
ELKHART          N/A     58  52  81 E10         N/A
GARDEN CITY    CLOUDY    60  55  83 S5        30.02R
GREAT BEND     CLOUDY    61  54  77 NW12      29.96S
LIBERAL        CLOUDY    63  54  72 NE17G23   29.99F
$$

KSZ066>073-081>083-090>101-311400-
SOUTHEAST KANSAS

CITY           SKY/WX    TMP DP  RH WIND       PRES   REMARKS
CHANUTE        CLOUDY    65  63  93 SE3       29.95R
COFFEYVILLE    CLOUDY    65  64  97 CALM      29.95R
HUTCHINSON     CLOUDY    63  60  90 W6        29.95R
MEDICINE LODGE   N/A     62  57  83 NE13      29.94R
NEWTON         CLOUDY    61  55  82 S7        29.95S
PARSONS        CLOUDY    65  64  97 CALM      29.97R
WICHITA INTL   TSTM      63  60  90 SW10      29.98R
WICHITA JABRA  LGT RAIN  61  60  97 S6        29.96R
WICHITA MCCONL LGT RAIN  63  59  88 NW5       29.96R
WINFIELD       RAIN      63  62  97 NW6       29.99R FOG
$$

KSZ007>012-019>026-033>040-048>060-102>105-311400-
NORTHEAST KANSAS

CITY           SKY/WX    TMP DP  RH WIND       PRES   REMARKS
CONCORDIA      CLOUDY    60  58  92 NW6       29.95S
EMPORIA        CLOUDY    62  61  96 S3        29.93R
LAWRENCE       MOSUNNY   65  63  93 SE8       29.91F
MANHATTAN      CLOUDY    65  59  81 CALM      29.94R
OLATHE IND     CLOUDY    66  63  90 SE5       29.94S
OLATHE EXE     CLOUDY    64  62  93 SE5       29.93F
SALINA         CLOUDY    64  60  87 W6        29.92S
TOPEKA BILLARD CLOUDY    67  62  84 E7        29.90F
TOPEKA FORBES  CLOUDY    66  63  90 SE8       29.90F
$$




USA.gov is the U.S. government's official web portal to all federal, state and local government web resources and services.